GLO9030 SBGR-SBEG

Flight info

Callsign GLO9030
Flight time 3h 33m
Altitude 36000
Route GERTU UM417 EVRIV DCT PUDKA DCT MATNA DCT IRUMO
Aircraft B738/M-SDFGIKLORWXY/LB1

Departure

Time 2026-05-04 16:55
Airport São Paulo/Guarulhos–Governor André Franco Montoro International Airport (SBGR)

Arrival

Time 2026-05-04 20:28
Airport Eduardo Gomes International Airport (SBEG)
Time Latitude Longitude Altitude Speed Heading
2026-05-04 16:40 -23.42890 -46.48221 2464 ft 0 kts 265°
2026-05-04 16:48 -23.42885 -46.48181 2464 ft 4 kts 232°
2026-05-04 16:48 -23.42865 -46.48170 2467 ft 4 kts 179°
2026-05-04 16:49 -23.42837 -46.48172 2464 ft 1 kts 174°
2026-05-04 16:51 -23.42849 -46.48170 2464 ft 4 kts 174°
2026-05-04 16:51 -23.42991 -46.48136 2467 ft 16 kts 174°
2026-05-04 16:52 -23.43215 -46.48091 2468 ft 4 kts 163°
2026-05-04 16:52 -23.43217 -46.48091 2468 ft 0 kts 163°
2026-05-04 16:53 -23.43330 -46.47987 2462 ft 17 kts 90°
2026-05-04 16:53 -23.42843 -46.46165 2465 ft 168 kts 73°
2026-05-04 16:54 -23.42489 -46.44835 2850 ft 186 kts 74°
2026-05-04 16:55 -23.38988 -46.40779 4559 ft 243 kts 33°
2026-05-04 16:55 -23.36183 -46.38517 5814 ft 263 kts 43°
2026-05-04 16:56 -23.33550 -46.35597 7284 ft 275 kts 44°
2026-05-04 16:56 -23.29414 -46.30970 9356 ft 292 kts 43°
2026-05-04 16:57 -23.27983 -46.29380 10051 ft 297 kts 43°
2026-05-04 16:57 -23.24921 -46.25985 10643 ft 336 kts 44°
2026-05-04 16:58 -23.19839 -46.20346 12532 ft 355 kts 45°
2026-05-04 16:58 -23.18117 -46.18437 13161 ft 360 kts 45°
2026-05-04 16:59 -23.14572 -46.14518 14445 ft 368 kts 42°
2026-05-04 17:00 -23.05328 -46.13836 16909 ft 353 kts 319°
2026-05-04 17:00 -22.99998 -46.19375 18684 ft 357 kts 311°
2026-05-04 17:01 -22.96437 -46.23204 19799 ft 363 kts 312°
2026-05-04 17:01 -22.92785 -46.27062 20875 ft 369 kts 312°
2026-05-04 17:02 -22.89346 -46.31175 21895 ft 367 kts 296°
2026-05-04 17:02 -22.87121 -46.36143 22861 ft 371 kts 292°
2026-05-04 17:03 -22.86026 -46.38681 23326 ft 373 kts 292°
2026-05-04 17:03 -22.84928 -46.41207 23757 ft 376 kts 292°
2026-05-04 17:03 -22.82648 -46.46385 24645 ft 380 kts 292°
2026-05-04 17:04 -22.80341 -46.51570 25495 ft 384 kts 292°
2026-05-04 17:04 -22.78004 -46.56803 26340 ft 387 kts 292°
2026-05-04 17:05 -22.75648 -46.62072 27099 ft 391 kts 292°
2026-05-04 17:05 -22.73284 -46.67350 27984 ft 390 kts 292°
2026-05-04 17:06 -22.70938 -46.72582 29057 ft 384 kts 291°
2026-05-04 17:06 -22.69774 -46.75179 29526 ft 382 kts 291°
2026-05-04 17:07 -22.67467 -46.80321 30456 ft 378 kts 290°
2026-05-04 17:07 -22.66693 -46.82042 30755 ft 376 kts 290°
2026-05-04 17:07 -22.65173 -46.85415 31270 ft 375 kts 290°
2026-05-04 17:07 -22.64027 -46.87952 31690 ft 373 kts 290°
2026-05-04 17:08 -22.62893 -46.90463 32113 ft 371 kts 290°
2026-05-04 17:08 -22.60626 -46.95484 32858 ft 367 kts 290°
2026-05-04 17:08 -22.59507 -46.97966 33216 ft 365 kts 290°
2026-05-04 17:09 -22.58412 -47.00399 33584 ft 363 kts 290°
2026-05-04 17:09 -22.57306 -47.02852 33901 ft 362 kts 290°
2026-05-04 17:09 -22.56205 -47.05292 34223 ft 361 kts 290°
2026-05-04 17:10 -22.54352 -47.10273 34751 ft 352 kts 280°
2026-05-04 17:10 -22.52506 -47.18028 35267 ft 357 kts 279°
2026-05-04 17:11 -22.51881 -47.20637 35419 ft 359 kts 279°
2026-05-04 17:11 -22.51245 -47.23245 35614 ft 360 kts 280°
2026-05-04 17:11 -22.49954 -47.28458 35934 ft 363 kts 280°
2026-05-04 17:12 -22.49295 -47.31098 36061 ft 365 kts 280°
2026-05-04 17:12 -22.47964 -47.36424 36181 ft 370 kts 280°
2026-05-04 17:13 -22.45910 -47.44624 36176 ft 382 kts 280°
2026-05-04 17:14 -22.43748 -47.53068 36167 ft 396 kts 286°
2026-05-04 17:14 -22.42434 -47.55733 36178 ft 409 kts 298°
2026-05-04 17:14 -22.38154 -47.60043 36178 ft 432 kts 316°
2026-05-04 17:15 -22.35668 -47.61897 36162 ft 435 kts 317°
2026-05-04 17:16 -22.25741 -47.69133 36148 ft 424 kts 317°
2026-05-04 17:17 -22.16007 -47.76403 36158 ft 424 kts 316°
2026-05-04 17:18 -22.06282 -47.83669 36155 ft 426 kts 316°
2026-05-04 17:19 -21.96502 -47.90957 36158 ft 428 kts 316°
2026-05-04 17:20 -21.86696 -47.98254 36145 ft 428 kts 316°
2026-05-04 17:20 -21.79326 -48.03730 36133 ft 428 kts 316°
2026-05-04 17:21 -21.69615 -48.11114 36127 ft 426 kts 316°
2026-05-04 17:22 -21.64785 -48.14807 36128 ft 426 kts 316°
2026-05-04 17:23 -21.55122 -48.22168 36119 ft 425 kts 316°
2026-05-04 17:24 -21.47836 -48.27705 36116 ft 426 kts 316°
2026-05-04 17:25 -21.38181 -48.35034 36124 ft 426 kts 316°
2026-05-04 17:26 -21.28469 -48.42393 36111 ft 428 kts 316°
2026-05-04 17:27 -21.16264 -48.51625 36108 ft 430 kts 316°
2026-05-04 17:28 -21.06474 -48.59015 36111 ft 431 kts 316°
2026-05-04 17:29 -20.92560 -48.69500 36110 ft 432 kts 316°
2026-05-04 17:31 -20.80235 -48.78767 36111 ft 433 kts 317°
2026-05-04 17:32 -20.67921 -48.88005 36112 ft 433 kts 317°
2026-05-04 17:33 -20.58048 -48.95401 36109 ft 433 kts 317°
2026-05-04 17:34 -20.48186 -49.02778 36109 ft 432 kts 317°
2026-05-04 17:35 -20.35872 -49.11974 36112 ft 432 kts 317°
2026-05-04 17:36 -20.30946 -49.15647 36112 ft 432 kts 317°
2026-05-04 17:36 -20.26014 -49.19322 36114 ft 432 kts 317°
2026-05-04 17:37 -20.21083 -49.22993 36111 ft 432 kts 317°
2026-05-04 17:37 -20.16184 -49.26638 36108 ft 432 kts 317°
2026-05-04 17:38 -20.11253 -49.30303 36115 ft 432 kts 317°
2026-05-04 17:38 -20.06319 -49.33968 36107 ft 433 kts 317°
2026-05-04 17:39 -19.98911 -49.39465 36110 ft 433 kts 317°
2026-05-04 17:39 -19.93964 -49.43132 36111 ft 433 kts 317°
2026-05-04 17:40 -19.89008 -49.46804 36111 ft 434 kts 318°
2026-05-04 17:40 -19.84045 -49.50477 36114 ft 435 kts 318°
2026-05-04 17:41 -19.79070 -49.54158 36108 ft 436 kts 318°
2026-05-04 17:41 -19.74087 -49.57840 36108 ft 436 kts 318°
2026-05-04 17:42 -19.69105 -49.61518 36111 ft 436 kts 318°
2026-05-04 17:42 -19.64121 -49.65196 36109 ft 436 kts 318°
2026-05-04 17:43 -19.59136 -49.68872 36119 ft 436 kts 318°
2026-05-04 17:43 -19.54151 -49.72544 36118 ft 436 kts 318°
2026-05-04 17:44 -19.49192 -49.76196 36120 ft 436 kts 318°
2026-05-04 17:44 -19.44213 -49.79859 36127 ft 436 kts 318°
2026-05-04 17:45 -19.39230 -49.83523 36121 ft 435 kts 318°
2026-05-04 17:45 -19.34250 -49.87181 36113 ft 436 kts 318°
2026-05-04 17:46 -19.29224 -49.90777 36119 ft 436 kts 319°
2026-05-04 17:46 -19.24204 -49.94314 36119 ft 436 kts 319°
2026-05-04 17:47 -19.19152 -49.97875 36124 ft 436 kts 319°
2026-05-04 17:47 -19.14070 -50.01467 36117 ft 437 kts 319°
2026-05-04 17:48 -19.09015 -50.05041 36129 ft 437 kts 319°
2026-05-04 17:48 -19.03985 -50.08596 36112 ft 438 kts 319°
2026-05-04 17:49 -18.98915 -50.12176 36120 ft 438 kts 319°
2026-05-04 17:49 -18.93844 -50.15753 36121 ft 438 kts 319°
2026-05-04 17:50 -18.88772 -50.19330 36125 ft 439 kts 319°
2026-05-04 17:50 -18.83690 -50.22910 36124 ft 439 kts 320°
2026-05-04 17:51 -18.78603 -50.26492 36120 ft 439 kts 320°
2026-05-04 17:51 -18.73516 -50.30070 36116 ft 440 kts 320°
2026-05-04 17:52 -18.68424 -50.33649 36121 ft 440 kts 320°
2026-05-04 17:52 -18.63325 -50.37231 36121 ft 440 kts 320°
2026-05-04 17:53 -18.58256 -50.40789 36122 ft 441 kts 320°
2026-05-04 17:53 -18.53152 -50.44369 36116 ft 441 kts 320°
2026-05-04 17:54 -18.48055 -50.47942 36128 ft 441 kts 320°
2026-05-04 17:54 -18.42942 -50.51522 36112 ft 441 kts 320°
2026-05-04 17:55 -18.37830 -50.55100 36118 ft 441 kts 320°
2026-05-04 17:55 -18.32719 -50.58675 36124 ft 441 kts 320°
2026-05-04 17:56 -18.27639 -50.62225 36114 ft 441 kts 320°
2026-05-04 17:56 -18.22521 -50.65800 36115 ft 441 kts 320°
2026-05-04 17:57 -18.17409 -50.69367 36116 ft 441 kts 320°
2026-05-04 17:57 -18.12297 -50.72932 36110 ft 441 kts 320°
2026-05-04 17:58 -18.07178 -50.76500 36107 ft 441 kts 320°
2026-05-04 17:58 -18.02062 -50.80062 36114 ft 441 kts 320°
2026-05-04 17:59 -17.96979 -50.83599 36107 ft 441 kts 320°
2026-05-04 18:00 -17.89319 -50.88926 36104 ft 441 kts 320°
2026-05-04 18:00 -17.84194 -50.92487 36099 ft 442 kts 320°
2026-05-04 18:01 -17.79065 -50.96047 36101 ft 442 kts 320°
2026-05-04 18:01 -17.73928 -50.99611 36106 ft 443 kts 320°
2026-05-04 18:02 -17.66194 -51.04971 36095 ft 445 kts 320°
2026-05-04 18:02 -17.61031 -51.08547 36089 ft 445 kts 320°
2026-05-04 18:03 -17.55856 -51.12128 36089 ft 445 kts 320°
2026-05-04 18:03 -17.50677 -51.15708 36080 ft 446 kts 320°
2026-05-04 18:04 -17.45523 -51.19270 36074 ft 447 kts 320°
2026-05-04 18:05 -17.37729 -51.24652 36070 ft 448 kts 320°
2026-05-04 18:05 -17.32523 -51.28243 36065 ft 448 kts 320°
2026-05-04 18:06 -17.24699 -51.33636 36058 ft 449 kts 320°
2026-05-04 18:06 -17.19491 -51.37223 36052 ft 449 kts 320°
2026-05-04 18:07 -17.14275 -51.40811 36052 ft 448 kts 320°
2026-05-04 18:07 -17.09061 -51.44397 36042 ft 448 kts 320°
2026-05-04 18:08 -17.03894 -51.47948 36037 ft 448 kts 320°
2026-05-04 18:08 -16.98688 -51.51524 36043 ft 447 kts 320°
2026-05-04 18:09 -16.88279 -51.58666 36034 ft 447 kts 320°
2026-05-04 18:10 -16.83077 -51.62231 36036 ft 447 kts 320°
2026-05-04 18:10 -16.77870 -51.65798 36027 ft 448 kts 320°
2026-05-04 18:11 -16.72659 -51.69365 36025 ft 448 kts 320°
2026-05-04 18:11 -16.67443 -51.72933 36028 ft 448 kts 320°
2026-05-04 18:12 -16.63101 -51.75902 36021 ft 449 kts 320°
2026-05-04 18:12 -16.57870 -51.79476 36025 ft 449 kts 320°
2026-05-04 18:13 -16.52636 -51.83049 36026 ft 450 kts 320°
2026-05-04 18:14 -16.44775 -51.88412 36025 ft 450 kts 320°
2026-05-04 18:14 -16.39523 -51.91992 36014 ft 451 kts 320°
2026-05-04 18:15 -16.29025 -51.99141 36010 ft 451 kts 321°
2026-05-04 18:16 -16.23771 -52.02715 36010 ft 451 kts 321°
2026-05-04 18:16 -16.18516 -52.06288 35998 ft 451 kts 321°
2026-05-04 18:17 -16.10632 -52.11643 35998 ft 451 kts 321°
2026-05-04 18:18 -16.02749 -52.16993 36002 ft 451 kts 321°
2026-05-04 18:18 -15.97523 -52.20537 36000 ft 451 kts 321°
2026-05-04 18:19 -15.89644 -52.25876 35995 ft 451 kts 321°
2026-05-04 18:19 -15.84350 -52.29460 35992 ft 451 kts 321°
2026-05-04 18:20 -15.79125 -52.32996 35993 ft 451 kts 321°
2026-05-04 18:20 -15.73836 -52.36572 35996 ft 451 kts 321°
2026-05-04 18:21 -15.68576 -52.40127 35992 ft 451 kts 321°
2026-05-04 18:21 -15.63319 -52.43676 35989 ft 450 kts 321°
2026-05-04 18:22 -15.58110 -52.47193 35990 ft 450 kts 321°
2026-05-04 18:22 -15.52863 -52.50732 36000 ft 450 kts 321°
2026-05-04 18:23 -15.47602 -52.54279 35989 ft 451 kts 321°
2026-05-04 18:23 -15.42296 -52.57854 35988 ft 452 kts 321°
2026-05-04 18:24 -15.37022 -52.61405 35993 ft 453 kts 321°
2026-05-04 18:24 -15.31735 -52.64962 35990 ft 453 kts 321°
2026-05-04 18:25 -15.26438 -52.68524 35993 ft 454 kts 322°
2026-05-04 18:25 -15.21139 -52.72085 35994 ft 454 kts 322°
2026-05-04 18:26 -15.15835 -52.75647 35992 ft 454 kts 322°
2026-05-04 18:26 -15.10529 -52.79209 35995 ft 454 kts 322°
2026-05-04 18:27 -15.05228 -52.82765 35984 ft 455 kts 322°
2026-05-04 18:27 -14.99917 -52.86325 35989 ft 454 kts 322°
2026-05-04 18:28 -14.94612 -52.89879 35987 ft 454 kts 322°
2026-05-04 18:28 -14.89305 -52.93433 35989 ft 454 kts 322°
2026-05-04 18:29 -14.84001 -52.96982 35988 ft 454 kts 322°
2026-05-04 18:29 -14.78699 -53.00528 35994 ft 454 kts 322°
2026-05-04 18:30 -14.70753 -53.05839 35989 ft 454 kts 322°
2026-05-04 18:31 -14.65452 -53.09380 35994 ft 454 kts 322°
2026-05-04 18:31 -14.60111 -53.12944 35984 ft 454 kts 322°
2026-05-04 18:32 -14.54802 -53.16486 35984 ft 454 kts 322°
2026-05-04 18:32 -14.49494 -53.20025 35983 ft 454 kts 322°
2026-05-04 18:33 -14.44178 -53.23566 35981 ft 455 kts 322°
2026-05-04 18:33 -14.38857 -53.27110 35981 ft 455 kts 323°
2026-05-04 18:34 -14.33540 -53.30648 35980 ft 455 kts 323°
2026-05-04 18:34 -14.28216 -53.34190 35982 ft 455 kts 323°
2026-05-04 18:35 -14.22894 -53.37728 35984 ft 456 kts 323°
2026-05-04 18:35 -14.17559 -53.41272 35976 ft 456 kts 323°
2026-05-04 18:36 -14.12227 -53.44813 35972 ft 456 kts 323°
2026-05-04 18:36 -14.06897 -53.48350 35974 ft 456 kts 323°
2026-05-04 18:37 -14.01564 -53.51888 35969 ft 456 kts 323°
2026-05-04 18:37 -13.96231 -53.55424 35972 ft 456 kts 323°
2026-05-04 18:38 -13.90895 -53.58959 35976 ft 456 kts 323°
2026-05-04 18:38 -13.85554 -53.62487 35971 ft 456 kts 323°
2026-05-04 18:39 -13.80213 -53.66014 35972 ft 456 kts 323°
2026-05-04 18:39 -13.74899 -53.69522 35970 ft 456 kts 323°
2026-05-04 18:40 -13.69553 -53.73050 35974 ft 456 kts 323°
2026-05-04 18:40 -13.64216 -53.76570 35970 ft 456 kts 323°
2026-05-04 18:41 -13.58873 -53.80093 35975 ft 455 kts 323°
2026-05-04 18:41 -13.53541 -53.83607 35970 ft 455 kts 323°
2026-05-04 18:42 -13.48208 -53.87119 35975 ft 455 kts 324°
2026-05-04 18:42 -13.42873 -53.90630 35971 ft 455 kts 324°
2026-05-04 18:43 -13.37577 -53.94115 35976 ft 455 kts 324°
2026-05-04 18:43 -13.32233 -53.97629 35971 ft 455 kts 324°
2026-05-04 18:44 -13.26896 -54.01136 35974 ft 455 kts 324°
2026-05-04 18:44 -13.21556 -54.04643 35962 ft 455 kts 324°
2026-05-04 18:45 -13.16216 -54.08149 35965 ft 455 kts 324°
2026-05-04 18:45 -13.10879 -54.11651 35963 ft 455 kts 324°
2026-05-04 18:46 -13.05540 -54.15152 35961 ft 455 kts 324°
2026-05-04 18:46 -13.00207 -54.18647 35966 ft 454 kts 324°
2026-05-04 18:47 -12.94879 -54.22138 35958 ft 454 kts 324°
2026-05-04 18:47 -12.89594 -54.25598 35966 ft 453 kts 325°
2026-05-04 18:48 -12.84275 -54.29079 35965 ft 453 kts 325°
2026-05-04 18:48 -12.78962 -54.32554 35963 ft 452 kts 325°
2026-05-04 18:49 -12.74551 -54.35438 35964 ft 452 kts 325°
2026-05-04 18:49 -12.69242 -54.38908 35963 ft 452 kts 325°
2026-05-04 18:50 -12.63937 -54.42373 35964 ft 452 kts 325°
2026-05-04 18:50 -12.58632 -54.45836 35963 ft 452 kts 325°
2026-05-04 18:51 -12.53330 -54.49296 35961 ft 452 kts 325°
2026-05-04 18:51 -12.48022 -54.52758 35966 ft 452 kts 325°
2026-05-04 18:52 -12.42718 -54.56216 35966 ft 452 kts 325°
2026-05-04 18:52 -12.37403 -54.59679 35960 ft 453 kts 325°
2026-05-04 18:53 -12.32090 -54.63139 35965 ft 453 kts 325°
2026-05-04 18:53 -12.26799 -54.66583 35961 ft 453 kts 325°
2026-05-04 18:54 -12.21479 -54.70043 35963 ft 453 kts 325°
2026-05-04 18:54 -12.16165 -54.73499 35966 ft 453 kts 325°
2026-05-04 18:55 -12.10852 -54.76953 35964 ft 453 kts 325°
2026-05-04 18:55 -12.02878 -54.82132 35964 ft 452 kts 325°
2026-05-04 18:56 -11.97561 -54.85585 35962 ft 453 kts 326°
2026-05-04 18:56 -11.92278 -54.89013 35966 ft 452 kts 326°
2026-05-04 18:57 -11.86956 -54.92465 35960 ft 453 kts 326°
2026-05-04 18:57 -11.81641 -54.95910 35965 ft 452 kts 326°
2026-05-04 18:58 -11.76324 -54.99355 35976 ft 452 kts 326°
2026-05-04 18:58 -11.71018 -55.02792 35980 ft 452 kts 326°
2026-05-04 18:59 -11.65706 -55.06231 35982 ft 452 kts 326°
2026-05-04 18:59 -11.60430 -55.09645 35981 ft 452 kts 326°
2026-05-04 19:00 -11.55122 -55.13078 35987 ft 451 kts 326°
2026-05-04 19:00 -11.49815 -55.16509 35978 ft 451 kts 326°
2026-05-04 19:01 -11.44507 -55.19939 35981 ft 451 kts 326°
2026-05-04 19:01 -11.39206 -55.23363 35988 ft 451 kts 326°
2026-05-04 19:02 -11.33901 -55.26789 35976 ft 451 kts 326°
2026-05-04 19:02 -11.28630 -55.30190 35981 ft 451 kts 326°
2026-05-04 19:03 -11.23321 -55.33614 35983 ft 451 kts 326°
2026-05-04 19:03 -11.18009 -55.37040 35979 ft 452 kts 326°
2026-05-04 19:04 -11.12699 -55.40462 35985 ft 452 kts 326°
2026-05-04 19:04 -11.07394 -55.43880 35980 ft 451 kts 326°
2026-05-04 19:05 -11.02081 -55.47301 35986 ft 451 kts 326°
2026-05-04 19:05 -10.96801 -55.50699 35983 ft 451 kts 326°
2026-05-04 19:06 -10.91480 -55.54122 35981 ft 452 kts 326°
2026-05-04 19:06 -10.86165 -55.57541 35980 ft 452 kts 326°
2026-05-04 19:07 -10.80853 -55.60956 35980 ft 451 kts 327°
2026-05-04 19:07 -10.75539 -55.64370 35982 ft 451 kts 327°
2026-05-04 19:08 -10.70229 -55.67780 35981 ft 451 kts 327°
2026-05-04 19:08 -10.64912 -55.71194 35981 ft 451 kts 327°
2026-05-04 19:09 -10.59602 -55.74602 35979 ft 451 kts 327°
2026-05-04 19:09 -10.54290 -55.78010 35986 ft 451 kts 327°
2026-05-04 19:10 -10.49010 -55.81395 35979 ft 451 kts 327°
2026-05-04 19:10 -10.43694 -55.84803 35980 ft 451 kts 327°
2026-05-04 19:11 -10.38369 -55.88214 35979 ft 451 kts 327°
2026-05-04 19:11 -10.33086 -55.91598 35969 ft 451 kts 327°
2026-05-04 19:12 -10.25118 -55.96698 35973 ft 451 kts 327°
2026-05-04 19:13 -10.19804 -56.00098 35972 ft 451 kts 327°
2026-05-04 19:13 -10.14486 -56.03499 35972 ft 451 kts 327°
2026-05-04 19:14 -10.09172 -56.06896 35971 ft 451 kts 327°
2026-05-04 19:14 -10.03858 -56.10292 35973 ft 451 kts 327°
2026-05-04 19:15 -9.98547 -56.13685 35968 ft 451 kts 327°
2026-05-04 19:15 -9.93270 -56.17055 35961 ft 451 kts 327°
2026-05-04 19:16 -9.87956 -56.20447 35964 ft 451 kts 327°
2026-05-04 19:16 -9.82646 -56.23835 35962 ft 451 kts 327°
2026-05-04 19:17 -9.77337 -56.27223 35969 ft 451 kts 327°
2026-05-04 19:17 -9.72029 -56.30607 35972 ft 450 kts 327°
2026-05-04 19:18 -9.66760 -56.34047 35974 ft 450 kts 326°
2026-05-04 19:18 -9.61518 -56.37522 35971 ft 450 kts 326°
2026-05-04 19:19 -9.56273 -56.40995 35972 ft 450 kts 326°
2026-05-04 19:19 -9.51027 -56.44458 35972 ft 450 kts 326°
2026-05-04 19:20 -9.45807 -56.47898 35972 ft 450 kts 326°
2026-05-04 19:20 -9.40558 -56.51355 35973 ft 450 kts 326°
2026-05-04 19:21 -9.35309 -56.54811 35973 ft 450 kts 326°
2026-05-04 19:21 -9.30061 -56.58265 35971 ft 450 kts 326°
2026-05-04 19:22 -9.24813 -56.61718 35964 ft 449 kts 326°
2026-05-04 19:22 -9.19568 -56.65167 35964 ft 449 kts 326°
2026-05-04 19:23 -9.14363 -56.68590 35962 ft 449 kts 326°
2026-05-04 19:23 -9.09122 -56.72034 35964 ft 448 kts 326°
2026-05-04 19:24 -9.03885 -56.75475 35963 ft 448 kts 326°
2026-05-04 19:24 -8.98647 -56.78915 35962 ft 448 kts 326°
2026-05-04 19:25 -8.93422 -56.82345 35962 ft 448 kts 326°
2026-05-04 19:25 -8.88225 -56.85756 35963 ft 447 kts 326°
2026-05-04 19:26 -8.83001 -56.89184 35964 ft 447 kts 326°
2026-05-04 19:26 -8.77774 -56.92612 35963 ft 447 kts 326°
2026-05-04 19:27 -8.72550 -56.96037 35964 ft 447 kts 326°
2026-05-04 19:27 -8.67325 -56.99462 35962 ft 447 kts 326°
2026-05-04 19:28 -8.62102 -57.02884 35960 ft 447 kts 326°
2026-05-04 19:28 -8.56916 -57.06281 35964 ft 447 kts 326°
2026-05-04 19:29 -8.51686 -57.09705 35964 ft 448 kts 326°
2026-05-04 19:29 -8.46457 -57.13128 35963 ft 448 kts 326°
2026-05-04 19:30 -8.41220 -57.16555 35964 ft 448 kts 326°
2026-05-04 19:30 -8.35979 -57.19983 35963 ft 448 kts 326°
2026-05-04 19:31 -8.30736 -57.23412 35961 ft 449 kts 326°
2026-05-04 19:31 -8.25527 -57.26817 35955 ft 449 kts 326°
2026-05-04 19:32 -8.20273 -57.30250 35954 ft 449 kts 326°
2026-05-04 19:32 -8.15021 -57.33681 35955 ft 450 kts 326°
2026-05-04 19:33 -8.09769 -57.37111 35951 ft 450 kts 327°
2026-05-04 19:33 -8.04511 -57.40544 35954 ft 450 kts 327°
2026-05-04 19:34 -7.99293 -57.43950 35957 ft 450 kts 327°
2026-05-04 19:34 -7.94033 -57.47382 35951 ft 450 kts 327°
2026-05-04 19:35 -7.88774 -57.50812 35950 ft 450 kts 327°
2026-05-04 19:35 -7.83517 -57.54240 35954 ft 450 kts 327°
2026-05-04 19:36 -7.78263 -57.57664 35955 ft 450 kts 327°
2026-05-04 19:36 -7.73000 -57.61094 35953 ft 450 kts 327°
2026-05-04 19:37 -7.68634 -57.63939 35955 ft 450 kts 327°
2026-05-04 19:37 -7.63375 -57.67364 35949 ft 450 kts 327°
2026-05-04 19:38 -7.58113 -57.70790 35944 ft 450 kts 327°
2026-05-04 19:38 -7.52853 -57.74214 35945 ft 450 kts 327°
2026-05-04 19:39 -7.47586 -57.77641 35944 ft 450 kts 327°
2026-05-04 19:39 -7.42329 -57.81062 35944 ft 450 kts 327°
2026-05-04 19:40 -7.37073 -57.84480 35944 ft 450 kts 327°
2026-05-04 19:40 -7.31841 -57.87881 35947 ft 450 kts 327°
2026-05-04 19:41 -7.26583 -57.91299 35943 ft 450 kts 327°
2026-05-04 19:41 -7.21322 -57.94718 35943 ft 449 kts 327°
2026-05-04 19:42 -7.16070 -57.98130 35945 ft 449 kts 327°
2026-05-04 19:42 -7.10813 -58.01544 35945 ft 449 kts 327°
2026-05-04 19:43 -7.05562 -58.04953 35944 ft 449 kts 327°
2026-05-04 19:43 -7.00311 -58.08361 35940 ft 449 kts 327°
2026-05-04 19:44 -6.95089 -58.11749 35936 ft 449 kts 327°
2026-05-04 19:44 -6.89834 -58.15158 35923 ft 450 kts 327°
2026-05-04 19:45 -6.84565 -58.18576 35926 ft 450 kts 327°
2026-05-04 19:45 -6.79303 -58.21988 35926 ft 450 kts 327°
2026-05-04 19:46 -6.74032 -58.25404 35931 ft 450 kts 327°
2026-05-04 19:46 -6.68804 -58.28792 35923 ft 450 kts 327°
2026-05-04 19:47 -6.63538 -58.32204 35930 ft 450 kts 327°
2026-05-04 19:47 -6.58280 -58.35610 35924 ft 450 kts 327°
2026-05-04 19:48 -6.53015 -58.39019 35923 ft 450 kts 327°
2026-05-04 19:48 -6.47751 -58.42427 35928 ft 450 kts 327°
2026-05-04 19:49 -6.42491 -58.45831 35928 ft 450 kts 327°
2026-05-04 19:49 -6.37234 -58.49233 35930 ft 450 kts 327°
2026-05-04 19:50 -6.31964 -58.52642 35922 ft 450 kts 327°
2026-05-04 19:50 -6.26741 -58.56020 35924 ft 449 kts 327°
2026-05-04 19:51 -6.21478 -58.59423 35926 ft 449 kts 327°
2026-05-04 19:51 -6.16222 -58.62820 35939 ft 449 kts 327°
2026-05-04 19:52 -6.10953 -58.66226 35919 ft 450 kts 327°
2026-05-04 19:52 -6.05691 -58.69626 35925 ft 450 kts 327°
2026-05-04 19:53 -6.00427 -58.73026 35926 ft 450 kts 327°
2026-05-04 19:53 -5.95155 -58.76431 35921 ft 450 kts 327°
2026-05-04 19:54 -5.89884 -58.79834 35923 ft 450 kts 327°
2026-05-04 19:54 -5.84645 -58.83216 35931 ft 450 kts 327°
2026-05-04 19:55 -5.79371 -58.86619 35924 ft 450 kts 327°
2026-05-04 19:55 -5.74100 -58.90020 35925 ft 450 kts 327°
2026-05-04 19:56 -5.68835 -58.93417 35927 ft 450 kts 327°
2026-05-04 19:56 -5.63567 -58.96814 35925 ft 450 kts 327°
2026-05-04 19:57 -5.58333 -59.00189 35925 ft 450 kts 327°
2026-05-04 19:57 -5.53066 -59.03585 35927 ft 450 kts 327°
2026-05-04 19:58 -5.47799 -59.06979 35930 ft 450 kts 327°
2026-05-04 19:58 -5.42517 -59.10383 35927 ft 451 kts 328°
2026-05-04 19:59 -5.37234 -59.13786 35918 ft 452 kts 328°
2026-05-04 19:59 -5.31947 -59.17192 35925 ft 451 kts 328°
2026-05-04 20:00 -5.26655 -59.20600 35926 ft 451 kts 328°
2026-05-04 20:00 -5.21404 -59.23981 35926 ft 451 kts 328°
2026-05-04 20:01 -5.16119 -59.27382 35927 ft 451 kts 328°
2026-05-04 20:01 -5.10822 -59.30792 35931 ft 452 kts 328°
2026-05-04 20:02 -5.05525 -59.34200 35922 ft 452 kts 328°
2026-05-04 20:02 -5.00219 -59.37614 35940 ft 456 kts 328°
2026-05-04 20:03 -4.94827 -59.41082 35934 ft 463 kts 328°
2026-05-04 20:03 -4.92107 -59.42831 35817 ft 466 kts 328°
2026-05-04 20:03 -4.89387 -59.44580 35191 ft 473 kts 328°
2026-05-04 20:03 -4.86627 -59.46355 34563 ft 471 kts 328°
2026-05-04 20:04 -4.83867 -59.48129 33883 ft 471 kts 328°
2026-05-04 20:04 -4.81108 -59.49903 33185 ft 472 kts 328°
2026-05-04 20:04 -4.78336 -59.51685 32460 ft 473 kts 328°
2026-05-04 20:04 -4.75565 -59.53466 31904 ft 470 kts 328°
2026-05-04 20:05 -4.72825 -59.55227 31379 ft 467 kts 328°
2026-05-04 20:05 -4.70098 -59.56980 30861 ft 463 kts 328°
2026-05-04 20:05 -4.67391 -59.58720 30352 ft 460 kts 328°
2026-05-04 20:05 -4.64709 -59.60443 29848 ft 456 kts 328°
2026-05-04 20:06 -4.62047 -59.62153 29343 ft 453 kts 328°
2026-05-04 20:06 -4.59397 -59.63855 28830 ft 449 kts 328°
2026-05-04 20:06 -4.56782 -59.65535 28321 ft 445 kts 328°
2026-05-04 20:06 -4.54177 -59.67208 27811 ft 442 kts 328°
2026-05-04 20:07 -4.51597 -59.68865 27309 ft 439 kts 328°
2026-05-04 20:07 -4.49073 -59.70486 26818 ft 435 kts 328°
2026-05-04 20:07 -4.46530 -59.72119 26315 ft 432 kts 328°
2026-05-04 20:07 -4.44004 -59.73741 25833 ft 429 kts 328°
2026-05-04 20:08 -4.41497 -59.75350 25340 ft 426 kts 328°
2026-05-04 20:08 -4.39008 -59.76948 24853 ft 423 kts 328°
2026-05-04 20:08 -4.36543 -59.78531 24372 ft 420 kts 328°
2026-05-04 20:08 -4.34089 -59.80106 23892 ft 417 kts 328°
2026-05-04 20:09 -4.31650 -59.81671 23413 ft 414 kts 328°
2026-05-04 20:09 -4.29233 -59.83223 22937 ft 411 kts 328°
2026-05-04 20:09 -4.26834 -59.84762 22457 ft 409 kts 328°
2026-05-04 20:09 -4.24447 -59.86294 21993 ft 406 kts 328°
2026-05-04 20:10 -4.22080 -59.87812 21525 ft 403 kts 328°
2026-05-04 20:10 -4.19719 -59.89328 21052 ft 401 kts 328°
2026-05-04 20:10 -4.17381 -59.90828 20590 ft 398 kts 328°
2026-05-04 20:10 -4.15058 -59.92319 20127 ft 396 kts 328°
2026-05-04 20:11 -4.12744 -59.93802 19663 ft 393 kts 328°
2026-05-04 20:11 -4.10441 -59.95261 19202 ft 390 kts 331°
2026-05-04 20:11 -4.07948 -59.96292 18697 ft 387 kts 343°
2026-05-04 20:11 -4.05411 -59.97048 18240 ft 385 kts 345°
2026-05-04 20:12 -4.02838 -59.97777 17766 ft 383 kts 345°
2026-05-04 20:12 -4.00284 -59.98500 17307 ft 380 kts 345°
2026-05-04 20:12 -3.97748 -59.99228 16850 ft 378 kts 345°
2026-05-04 20:12 -3.95229 -59.99964 16399 ft 376 kts 345°
2026-05-04 20:13 -3.92729 -60.00702 15951 ft 373 kts 345°
2026-05-04 20:13 -3.90251 -60.01439 15506 ft 371 kts 345°
2026-05-04 20:13 -3.87786 -60.02175 15062 ft 368 kts 345°
2026-05-04 20:13 -3.85340 -60.02907 14630 ft 365 kts 345°
2026-05-04 20:14 -3.82907 -60.03634 14183 ft 363 kts 345°
2026-05-04 20:14 -3.80497 -60.04356 13747 ft 360 kts 345°
2026-05-04 20:14 -3.78134 -60.05063 13322 ft 358 kts 345°
2026-05-04 20:14 -3.75757 -60.05774 12888 ft 355 kts 346°
2026-05-04 20:15 -3.73395 -60.06480 12459 ft 353 kts 346°
2026-05-04 20:15 -3.71051 -60.07181 12029 ft 350 kts 346°
2026-05-04 20:15 -3.68724 -60.07877 11598 ft 348 kts 346°
2026-05-04 20:15 -3.66415 -60.08568 11180 ft 345 kts 346°
2026-05-04 20:16 -3.64125 -60.09252 10760 ft 343 kts 346°
2026-05-04 20:16 -3.61854 -60.09932 10491 ft 335 kts 346°
2026-05-04 20:16 -3.59655 -60.10590 10342 ft 325 kts 346°
2026-05-04 20:16 -3.57521 -60.11229 10194 ft 315 kts 346°
2026-05-04 20:17 -3.55445 -60.11850 10070 ft 306 kts 346°
2026-05-04 20:17 -3.53433 -60.12451 9925 ft 297 kts 346°
2026-05-04 20:17 -3.51473 -60.13037 9713 ft 292 kts 346°
2026-05-04 20:17 -3.49558 -60.13610 9435 ft 290 kts 346°
2026-05-04 20:18 -3.47636 -60.14184 9141 ft 288 kts 346°
2026-05-04 20:18 -3.45721 -60.14756 8847 ft 286 kts 346°
2026-05-04 20:18 -3.43818 -60.15325 8541 ft 284 kts 346°
2026-05-04 20:18 -3.42030 -60.15859 8274 ft 283 kts 346°
2026-05-04 20:19 -3.40147 -60.16422 7975 ft 281 kts 346°
2026-05-04 20:19 -3.38279 -60.16980 7671 ft 280 kts 346°
2026-05-04 20:19 -3.36417 -60.17537 7376 ft 279 kts 346°
2026-05-04 20:19 -3.34563 -60.18092 7077 ft 277 kts 346°
2026-05-04 20:20 -3.32717 -60.18644 6779 ft 276 kts 346°
2026-05-04 20:20 -3.30882 -60.19192 6487 ft 274 kts 346°
2026-05-04 20:20 -3.29058 -60.19738 6196 ft 273 kts 346°
2026-05-04 20:20 -3.27242 -60.20281 5914 ft 271 kts 346°
2026-05-04 20:21 -3.25447 -60.20817 5647 ft 269 kts 346°
2026-05-04 20:21 -3.23654 -60.21291 5405 ft 264 kts 352°
2026-05-04 20:21 -3.20088 -60.21860 4950 ft 257 kts 354°
2026-05-04 20:22 -3.18331 -60.22137 4672 ft 255 kts 353°
2026-05-04 20:22 -3.16602 -60.22419 4527 ft 243 kts 353°
2026-05-04 20:22 -3.14999 -60.22685 4394 ft 225 kts 353°
2026-05-04 20:22 -3.13525 -60.22901 4216 ft 209 kts 359°
2026-05-04 20:23 -3.12106 -60.22917 3981 ft 199 kts
2026-05-04 20:23 -3.10721 -60.22896 3663 ft 196 kts
2026-05-04 20:23 -3.09378 -60.22881 3536 ft 192 kts
2026-05-04 20:23 -3.08037 -60.22870 3455 ft 193 kts
2026-05-04 20:24 -3.06687 -60.22862 3394 ft 195 kts
2026-05-04 20:24 -3.05370 -60.22615 3321 ft 195 kts 33°
2026-05-04 20:24 -3.04581 -60.21554 3230 ft 196 kts 71°
2026-05-04 20:24 -3.04195 -60.20240 2972 ft 195 kts 73°
2026-05-04 20:25 -3.03969 -60.18921 2727 ft 191 kts 81°
2026-05-04 20:25 -3.03884 -60.18045 2557 ft 189 kts 84°
2026-05-04 20:25 -3.03844 -60.16744 2314 ft 186 kts 88°
2026-05-04 20:25 -3.03845 -60.15467 2070 ft 179 kts 89°
2026-05-04 20:26 -3.03849 -60.14259 1878 ft 164 kts 89°
2026-05-04 20:26 -3.03851 -60.13155 1630 ft 155 kts 89°
2026-05-04 20:26 -3.03852 -60.12079 1429 ft 155 kts 89°
2026-05-04 20:26 -3.03854 -60.10998 1227 ft 155 kts 90°
2026-05-04 20:27 -3.03856 -60.09915 1021 ft 155 kts 90°
2026-05-04 20:27 -3.03857 -60.08837 813 ft 155 kts 90°
2026-05-04 20:27 -3.03859 -60.07759 607 ft 154 kts 90°
2026-05-04 20:27 -3.03855 -60.06689 404 ft 154 kts 89°
2026-05-04 20:28 -3.03854 -60.05637 275 ft 144 kts 89°
2026-05-04 20:28 -3.03858 -60.04753 268 ft 108 kts 90°
2026-05-04 20:28 -3.03860 -60.04152 268 ft 57 kts 90°
2026-05-04 20:28 -3.03862 -60.03921 268 ft 18 kts 90°
2026-05-04 20:29 -3.03853 -60.03815 267 ft 13 kts 64°
2026-05-04 20:29 -3.03783 -60.03769 268 ft 12 kts
2026-05-04 20:29 -3.03708 -60.03801 268 ft 12 kts 309°
2026-05-04 20:29 -3.03675 -60.03876 268 ft 12 kts 285°
2026-05-04 20:30 -3.03654 -60.03953 267 ft 11 kts 285°
2026-05-04 20:30 -3.03633 -60.04028 267 ft 11 kts 284°
2026-05-04 20:30 -3.03610 -60.04116 267 ft 15 kts 285°
2026-05-04 20:30 -3.03579 -60.04217 267 ft 15 kts 294°
2026-05-04 20:31 -3.03521 -60.04302 267 ft 15 kts 314°
2026-05-04 20:31 -3.03440 -60.04358 267 ft 14 kts 335°
2026-05-04 20:31 -3.03351 -60.04389 267 ft 12 kts 336°
2026-05-04 20:31 -3.03334 -60.04432 267 ft 7 kts 268°
2026-05-04 20:32 -3.03343 -60.04480 267 ft 7 kts 257°
2026-05-04 20:32 -3.03348 -60.04527 267 ft 7 kts 289°
2026-05-04 20:32 -3.03305 -60.04537 267 ft 7 kts
2026-05-04 20:32 -3.03275 -60.04539 267 ft 0 kts 354°